User: anonymous   Login
Location: Cluny
(50.9333°N, 112.8167°W)
Time: 03:48:03
(UTC-06:00)
Language:

Cosmos 1743 Rocket - Orbit

View from above orbital plane
View from above orbital plane
View from above satellite
View from above satellite

Ground track
Ground track

The orbit data is extracted from the following two-line orbital elements,

1 16720U 86034B   16182.58786137  .00000092  00000-0  82718-5 0  9992
2 16720  82.5529 209.2808 0020294 176.9678 299.5746 14.83233950627149
Epoch (UTC): 30 June 2016 14:06:31
Eccentricity: 0.0020294
inclination: 82.5529°
perigee height: 605 km
apogee height: 633 km
right ascension of ascending node: 209.2808°
argument of perigee: 176.9678°
revolutions per day: 14.83233950
mean anomaly at epoch: 299.5746°
orbit number at epoch: 62714

The dashed part of the orbit path shows where the satellite is in the earth's shadow,  

DLR